TimeAKDT,TemperatureF,Dew PointF,Humidity,Sea Level PressureIn,VisibilityMPH,Wind Direction,Wind SpeedMPH,Gust SpeedMPH,PrecipitationIn,Events,Conditions,WindDirDegrees,DateUTC
12:16 AM,55.4,48.2,77,29.62,10.0,Calm,Calm,-,N/A,,Clear,0,2013-06-26 08:16:00
12:36 AM,55.4,46.4,72,29.62,10.0,Calm,Calm,-,N/A,,Clear,0,2013-06-26 08:36:00
12:56 AM,53.6,46.4,77,29.62,10.0,Calm,Calm,-,N/A,,Clear,0,2013-06-26 08:56:00
1:16 AM,51.8,46.4,82,29.63,10.0,Calm,Calm,-,N/A,,Clear,0,2013-06-26 09:16:00
1:36 AM,51.8,46.4,82,29.63,10.0,Calm,Calm,-,N/A,,Clear,0,2013-06-26 09:36:00
1:56 AM,50.0,44.6,82,29.63,10.0,Calm,Calm,-,N/A,,Clear,0,2013-06-26 09:56:00
2:16 AM,51.8,44.6,76,29.63,10.0,Calm,Calm,-,N/A,,Clear,0,2013-06-26 10:16:00
2:36 AM,48.2,42.8,82,29.63,10.0,Calm,Calm,-,N/A,,Clear,0,2013-06-26 10:36:00
2:56 AM,48.2,44.6,87,29.63,10.0,Calm,Calm,-,N/A,,Clear,0,2013-06-26 10:56:00
3:16 AM,50.0,44.6,82,29.62,10.0,Calm,Calm,-,N/A,,Clear,0,2013-06-26 11:16:00
3:36 AM,50.0,44.6,82,29.62,10.0,Calm,Calm,-,N/A,,Clear,0,2013-06-26 11:36:00
3:56 AM,48.2,42.8,82,29.62,10.0,Calm,Calm,-,N/A,,Clear,0,2013-06-26 11:56:00
4:16 AM,48.2,42.8,82,29.62,10.0,Calm,Calm,-,N/A,,Clear,0,2013-06-26 12:16:00
4:36 AM,46.4,42.8,87,29.62,10.0,Calm,Calm,-,N/A,,Clear,0,2013-06-26 12:36:00
4:56 AM,48.2,42.8,82,29.63,10.0,Calm,Calm,-,N/A,,Clear,0,2013-06-26 12:56:00
5:16 AM,46.4,42.8,87,29.63,10.0,Calm,Calm,-,N/A,,Clear,0,2013-06-26 13:16:00
5:36 AM,46.4,41.0,81,29.62,10.0,Calm,Calm,-,N/A,,Clear,0,2013-06-26 13:36:00
5:56 AM,48.2,44.6,87,29.63,10.0,Calm,Calm,-,N/A,,Clear,0,2013-06-26 13:56:00
6:16 AM,48.2,42.8,82,29.63,10.0,Calm,Calm,-,N/A,,Clear,0,2013-06-26 14:16:00
6:36 AM,50.0,44.6,82,29.63,10.0,Calm,Calm,-,N/A,,Clear,0,2013-06-26 14:36:00
6:56 AM,50.0,44.6,82,29.63,10.0,Calm,Calm,-,N/A,,Clear,0,2013-06-26 14:56:00
7:16 AM,51.8,44.6,76,29.63,10.0,Calm,Calm,-,N/A,,Clear,0,2013-06-26 15:16:00
7:36 AM,53.6,46.4,77,29.63,10.0,Calm,Calm,-,N/A,,Clear,0,2013-06-26 15:36:00
7:56 AM,55.4,46.4,72,29.63,10.0,Calm,Calm,-,N/A,,Clear,0,2013-06-26 15:56:00
8:16 AM,57.2,48.2,72,29.63,10.0,Calm,Calm,-,N/A,,Clear,0,2013-06-26 16:16:00
8:36 AM,59.0,48.2,67,29.63,10.0,Calm,Calm,-,N/A,,Clear,0,2013-06-26 16:36:00
8:56 AM,60.8,50.0,68,29.63,10.0,Calm,Calm,-,N/A,,Clear,0,2013-06-26 16:56:00
9:16 AM,62.6,48.2,59,29.62,10.0,Calm,Calm,-,N/A,,Clear,0,2013-06-26 17:16:00
9:36 AM,64.4,48.2,56,29.62,10.0,Calm,Calm,-,N/A,,Clear,0,2013-06-26 17:36:00
9:56 AM,66.2,48.2,52,29.61,10.0,NNW,3.5,-,N/A,,Clear,340,2013-06-26 17:56:00
10:16 AM,66.2,48.2,52,29.61,10.0,WNW,3.5,-,N/A,,Clear,300,2013-06-26 18:16:00
10:36 AM,68.0,48.2,49,29.61,10.0,Calm,Calm,-,N/A,,Clear,0,2013-06-26 18:36:00
10:56 AM,69.8,48.2,46,29.61,10.0,NNW,5.8,-,N/A,,Clear,330,2013-06-26 18:56:00
11:16 AM,69.8,51.8,53,29.61,10.0,NNW,3.5,-,N/A,,Clear,330,2013-06-26 19:16:00
11:36 AM,71.6,51.8,50,29.61,10.0,West,3.5,-,N/A,,Clear,280,2013-06-26 19:36:00
11:56 AM,71.6,51.8,50,29.61,10.0,West,3.5,-,N/A,,Clear,270,2013-06-26 19:56:00
12:16 PM,73.4,51.8,47,29.61,10.0,Calm,Calm,-,N/A,,Clear,0,2013-06-26 20:16:00
12:36 PM,73.4,53.6,50,29.61,10.0,West,4.6,-,N/A,,Clear,280,2013-06-26 20:36:00
12:56 PM,75.2,53.6,47,29.61,10.0,SW,4.6,-,N/A,,Clear,220,2013-06-26 20:56:00
1:16 PM,75.2,51.8,44,29.62,10.0,Calm,Calm,-,N/A,,Clear,0,2013-06-26 21:16:00
1:36 PM,77.0,53.6,44,29.62,10.0,Calm,Calm,-,N/A,,Clear,0,2013-06-26 21:36:00
1:56 PM,78.8,53.6,42,29.63,10.0,Calm,Calm,-,N/A,,Clear,0,2013-06-26 21:56:00
2:16 PM,78.8,53.6,42,29.64,10.0,Calm,Calm,-,N/A,,Clear,0,2013-06-26 22:16:00
2:36 PM,78.8,53.6,42,29.64,10.0,SW,11.5,-,N/A,,Clear,230,2013-06-26 22:36:00
2:56 PM,77.0,53.6,44,29.66,5.0,SSW,5.8,-,N/A,,Clear,200,2013-06-26 22:56:00
3:16 PM,78.8,53.6,42,29.67,10.0,SW,6.9,-,N/A,,Clear,230,2013-06-26 23:16:00
3:36 PM,80.6,53.6,39,29.67,9.0,SE,4.6,-,N/A,,Clear,130,2013-06-26 23:36:00
3:56 PM,82.4,51.8,35,29.68,10.0,South,11.5,16.1,N/A,,Clear,170,2013-06-26 23:56:00
4:16 PM,80.6,50.0,34,29.69,10.0,SSE,12.7,20.7,N/A,,Scattered Clouds,160,2013-06-27 00:16:00
4:36 PM,78.8,48.2,34,29.70,10.0,South,8.1,18.4,N/A,,Mostly Cloudy,190,2013-06-27 00:36:00
4:56 PM,77.0,48.2,36,29.73,10.0,South,6.9,-,N/A,,Overcast,180,2013-06-27 00:56:00
5:16 PM,73.4,48.2,41,29.73,10.0,South,9.2,-,N/A,,Overcast,180,2013-06-27 01:16:00
5:36 PM,66.2,50.0,56,29.74,10.0,West,9.2,-,N/A,,Overcast,270,2013-06-27 01:36:00
5:56 PM,64.4,51.8,64,29.76,10.0,WNW,3.5,-,0.01,,Overcast,290,2013-06-27 01:56:00
6:16 PM,62.6,53.6,72,29.77,10.0,Calm,Calm,-,N/A,,Overcast,0,2013-06-27 02:16:00
6:36 PM,64.4,53.6,68,29.77,10.0,West,3.5,-,N/A,,Mostly Cloudy,260,2013-06-27 02:36:00
6:56 PM,64.4,55.4,73,29.78,10.0,West,3.5,-,N/A,,Overcast,270,2013-06-27 02:56:00
7:16 PM,66.2,55.4,68,29.79,10.0,SSW,4.6,-,N/A,,Scattered Clouds,210,2013-06-27 03:16:00
7:36 PM,69.8,53.6,56,29.79,10.0,SSW,9.2,-,N/A,,Clear,200,2013-06-27 03:36:00
7:56 PM,69.8,53.6,56,29.80,10.0,SSW,12.7,16.1,N/A,,Clear,210,2013-06-27 03:56:00
8:16 PM,69.8,53.6,56,29.80,10.0,SW,8.1,-,N/A,,Clear,230,2013-06-27 04:16:00
8:36 PM,69.8,53.6,56,29.80,10.0,SW,5.8,-,N/A,,Clear,220,2013-06-27 04:36:00
8:56 PM,69.8,51.8,53,29.80,10.0,WSW,6.9,-,N/A,,Clear,250,2013-06-27 04:56:00
9:16 PM,69.8,51.8,53,29.81,10.0,SW,5.8,-,N/A,,Clear,230,2013-06-27 05:16:00
9:36 PM,69.8,51.8,53,29.81,10.0,WSW,4.6,-,N/A,,Clear,240,2013-06-27 05:36:00
9:56 PM,69.8,51.8,53,29.81,10.0,WSW,5.8,-,N/A,,Clear,240,2013-06-27 05:56:00
10:16 PM,64.4,51.8,64,29.82,10.0,West,9.2,-,N/A,,Clear,280,2013-06-27 06:16:00
10:36 PM,60.8,50.0,68,29.83,10.0,WSW,5.8,-,N/A,,Clear,250,2013-06-27 06:36:00
10:56 PM,62.6,50.0,63,29.84,10.0,Calm,Calm,-,N/A,,Clear,0,2013-06-27 06:56:00
11:16 PM,60.8,50.0,68,29.86,10.0,WSW,6.9,-,N/A,,Clear,250,2013-06-27 07:16:00
11:36 PM,59.0,48.2,67,29.87,10.0,WSW,3.5,-,N/A,,Clear,240,2013-06-27 07:36:00
11:56 PM,59.0,48.2,67,29.88,10.0,South,3.5,-,N/A,,Clear,190,2013-06-27 07:56:00